DW2363 Weather Reports


time (UTC)temp
F
wind
direction
speed
knots
gust
knots
rain 1hr
in
rain 24hr
in
rain mn
in
humidity
%
barometer
mb
20260505130152 49 269 10.4 13.0 0.00 0.00 0.00 85 1012.0
20260505124656 49 256 6.1 10.4 0.00 0.00 0.00 83 1012.1
20260505124652 49 254 6.1 9.6 0.00 0.00 0.00 84 1012.0
20260505123651 49 264 7.0 10.4 0.00 0.00 0.00 83 1012.1
20260505123149 49 274 7.8 10.4 0.00 0.00 0.00 82 1012.1
20260505122649 49 279 7.8 10.4 0.00 0.00 0.00 82 1012.0
20260505122149 49 277 7.0 11.3 0.00 0.00 0.00 81 1012.0
20260505121649 49 282 6.1 11.3 0.00 0.00 0.00 81 1012.0
20260505121149 49 288 5.2 8.7 0.00 0.00 0.00 81 1012.0
20260505120649 49 296 5.2 7.8 0.00 0.00 0.00 81 1012.0
20260505120148 49 284 5.2 7.8 0.00 0.00 0.00 83 1012.0
20260505115649 49 273 6.1 7.8 0.00 0.00 0.00 84 1012.2
20260505115148 49 277 6.1 7.8 0.00 0.00 0.00 84 1012.2
20260505114648 49 270 4.3 7.8 0.00 0.00 0.00 86 1012.3
20260505114148 49 278 1.7 5.2 0.00 0.00 0.00 87 1012.3
20260505113649 49 220 2.6 4.3 0.00 0.00 0.00 86 1012.2
20260505113149 49 193 3.5 4.3 0.00 0.00 0.00 86 1012.2
20260505112649 49 203 3.5 6.1 0.00 0.00 0.00 86 1012.1
20260505112155 49 204 5.2 7.0 0.00 0.00 0.00 85 1012.2
20260505112149 49 204 4.3 6.1 0.00 0.00 0.00 85 1012.2
20260505111756 49 198 5.2 7.0 0.00 0.00 0.00 84 1012.1
20260505110649 49 200 5.2 6.1 0.00 0.00 0.00 84 1012.2
20260505110148 49 209 4.3 6.1 0.00 0.00 0.00 83 1012.2
20260505101642 49 278 3.5 6.1 0.00 0.00 0.00 87 1012.3
20260505101142 49 247 1.7 4.3 0.00 0.00 0.00 88 1012.3
20260505100646 49 189 0.9 2.6 0.00 0.00 0.00 89 1012.4
20260505100642 49 202 0.0 2.6 0.00 0.00 0.00 89 1012.4
20260505095642 49 189 0.9 2.6 0.00 0.00 0.00 89 1012.4
20260505095142 49 190 0.9 2.6 0.00 0.00 0.00 88 1012.5
20260505094642 49 190 1.7 7.8 0.00 0.00 0.00 88 1012.5
20260505094143 49 190 2.6 7.8 0.00 0.00 0.00 87 1012.6
20260505093644 49 190 4.3 7.8 0.00 0.00 0.00 86 1012.5
20260505093147 49 240 5.2 10.4 0.00 0.00 0.00 86 1012.7
20260505093143 49 227 5.2 7.8 0.00 0.00 0.00 86 1012.6
20260505092145 50 243 7.8 10.4 0.00 0.00 0.00 85 1012.9
20260505092140 50 209 6.1 10.4 0.00 0.00 0.00 85 1012.8
20260505091747 49 254 8.7 10.4 0.00 0.00 0.00 85 1013.0
20260505090640 49 254 8.7 11.3 0.00 0.00 0.00 86 1013.0
20260505090140 49 261 8.7 12.2 0.00 0.00 0.00 87 1013.0
20260505085640 49 265 8.7 12.2 0.00 0.00 0.00 88 1013.0
20260505085140 49 263 7.0 10.4 0.00 0.00 0.00 90 1013.0
20260505084640 49 269 6.1 9.6 0.00 0.00 0.00 91 1013.1
20260505084140 49 290 5.2 7.8 0.00 0.00 0.00 91 1013.2
20260505083640 49 295 7.0 9.6 0.00 0.00 0.00 90 1013.4
20260505083138 49 307 7.8 9.6 0.00 0.00 0.00 90 1013.4
20260505082642 49 302 5.2 8.7 0.00 0.00 0.00 90 1013.4
20260505082638 49 302 7.0 9.6 0.00 0.00 0.00 89 1013.2
20260505081638 49 294 5.2 7.8 0.00 0.00 0.00 91 1013.4
20260505081137 49 304 5.2 7.8 0.00 0.00 0.00 91 1013.4
20260505080637 49 289 6.1 10.4 0.00 0.00 0.00 91 1013.5
20260505080138 49 283 7.0 10.4 0.00 0.00 0.00 92 1013.5
20260505075642 49 277 6.1 8.7 0.00 0.00 0.00 91 1013.6
20260505075638 49 295 7.0 9.6 0.00 0.00 0.00 91 1013.5
20260505074641 49 240 6.1 9.6 0.00 0.00 0.00 90 1013.6
20260505074637 49 229 6.1 9.6 0.00 0.00 0.00 90 1013.6
20260505073637 49 246 6.1 9.6 0.00 0.00 0.00 91 1013.7
20260505073138 49 257 7.0 9.6 0.00 0.00 0.00 92 1013.7
20260505072638 49 244 7.0 9.6 0.00 0.00 0.00 92 1013.7
20260505072136 49 259 7.0 11.3 0.00 0.00 0.00 93 1013.7
20260505071636 49 350 7.0 11.3 0.00 0.00 0.00 93 1013.7
20260505071135 49 300 7.0 12.2 0.00 0.00 0.00 94 1013.7
20260505070635 49 251 7.8 12.2 0.00 0.00 0.00 94 1013.7
20260505070140 49 246 9.6 13.0 0.00 0.00 0.00 94 1013.6
20260505070136 49 252 8.7 13.0 0.00 0.00 0.00 94 1013.6
20260505065135 49 254 9.6 13.0 0.00 0.00 0.00 94 1013.5
20260505064745 49 263 7.8 10.4 0.00 0.00 0.00 94 1013.7
20260505064635 49 252 9.6 13.0 0.00 0.00 0.00 94 1013.6
20260505064140 49 263 8.7 11.3 0.00 0.00 0.00 94 1013.7
20260505064135 49 243 8.7 13.0 0.00 0.00 0.00 94 1013.6
20260505062635 49 328 7.0 10.4 0.00 0.00 0.00 93 1013.7
20260505062136 49 292 4.3 9.6 0.00 0.00 0.00 93 1013.8
20260505061636 50 276 3.5 6.1 0.00 0.00 0.00 93 1013.8
20260505061135 50 279 3.5 7.0 0.00 0.00 0.00 92 1013.8
20260505060633 50 273 2.6 7.0 0.00 0.00 0.00 92 1013.8
20260505060133 50 266 2.6 5.2 0.00 0.00 0.00 91 1013.8
20260505055633 50 319 1.7 5.2 0.00 0.00 0.00 91 1013.8
20260505055133 50 286 1.7 5.2 0.00 0.00 0.00 90 1013.8
20260505054633 50 288 0.9 3.5 0.00 0.00 0.00 90 1013.8
20260505054131 50 255 1.7 5.2 0.00 0.00 0.00 89 1013.7
20260505053633 50 230 2.6 5.2 0.00 0.00 0.00 88 1013.7
20260505053131 50 266 1.7 5.2 0.00 0.00 0.00 88 1013.8
20260505052631 50 274 1.7 5.2 0.00 0.00 0.00 90 1013.9
20260505052131 50 286 1.7 3.5 0.00 0.00 0.00 90 1013.9
20260505051632 50 275 0.9 3.5 0.00 0.00 0.00 89 1013.9
20260505051131 50 275 0.9 3.5 0.00 0.00 0.00 89 1013.9
20260505050631 50 275 0.9 6.1 0.00 0.00 0.00 90 1013.9
20260505050130 50 275 0.9 6.1 0.00 0.00 0.00 91 1013.8
20260505041629 50 273 4.3 7.8 0.00 0.00 0.00 92 1014.0
20260505041127 50 257 2.6 6.1 0.00 0.00 0.00 92 1014.0
20260505040627 50 261 2.6 5.2 0.00 0.00 0.00 92 1014.0
20260505040132 50 312 2.6 4.3 0.00 0.00 0.00 93 1014.1
20260505040127 50 279 2.6 5.2 0.00 0.00 0.00 92 1014.0
20260505035734 50 300 2.6 4.3 0.00 0.00 0.00 93 1014.0
20260505034627 50 297 1.7 4.3 0.00 0.00 0.00 94 1014.0
20260505034127 50 238 2.6 4.3 0.00 0.00 0.00 94 1013.9
20260505033627 50 238 2.6 5.2 0.00 0.00 0.00 94 1013.9
20260505033127 50 257 2.6 5.2 0.00 0.00 0.00 95 1013.9
20260505032627 50 247 1.7 3.5 0.00 0.00 0.00 95 1013.9
20260505032125 51 186 1.7 3.5 0.00 0.00 0.00 95 1013.8
20260505031625 51 186 1.7 7.0 0.00 0.00 0.00 95 1013.7
20260505031126 51 186 2.6 7.0 0.00 0.00 0.00 94 1013.7
20260505030625 51 178 4.3 7.0 0.00 0.00 0.00 94 1013.5
20260505030125 51 167 5.2 7.8 0.00 0.00 0.00 94 1013.4
20260505025631 51 188 5.2 7.8 0.00 0.00 0.00 93 1013.4
20260505025625 51 195 5.2 7.8 0.00 0.00 0.00 93 1013.4
20260505024625 50 188 6.1 7.8 0.00 0.00 0.00 93 1013.5
20260505024122 50 227 6.1 7.8 0.00 0.00 0.00 94 1013.5
20260505023622 50 221 6.1 10.4 0.00 0.00 0.00 94 1013.5
20260505023121 50 211 6.1 10.4 0.00 0.00 0.00 94 1013.5
20260505022621 50 199 7.0 10.4 0.00 0.00 0.00 95 1013.4
20260505022125 50 207 7.8 12.2 0.00 0.00 0.00 95 1013.4
20260505022120 50 210 8.7 12.2 0.00 0.00 0.00 95 1013.4
20260505021125 50 188 7.0 10.4 0.00 0.00 0.00 96 1013.5
20260505021121 50 205 7.0 10.4 0.00 0.00 0.00 96 1013.5
20260505020121 50 198 7.8 10.4 0.00 0.00 0.00 96 1013.5
20260505015621 50 193 8.7 14.8 0.00 0.00 0.00 96 1013.5
20260505015120 50 192 9.6 14.8 0.00 0.00 0.00 96 1013.4
20260505014621 50 194 10.4 15.6 0.00 0.00 0.00 96 1013.4
20260505014120 50 211 10.4 15.6 0.00 0.00 0.00 95 1013.5
20260505013620 50 195 10.4 13.9 0.00 0.00 0.00 95 1013.5
20260505013121 50 202 10.4 13.9 0.00 0.00 0.00 95 1013.6
20260505012624 51 202 8.7 13.0 0.00 0.00 0.00 95 1013.7
20260505012620 50 190 9.6 12.2 0.00 0.00 0.00 95 1013.6
20260505011728 51 182 12.2 16.5 0.00 0.00 0.00 94 1013.8
20260505011621 51 200 9.6 13.0 0.00 0.00 0.00 95 1013.7
20260505011124 51 186 9.6 16.5 0.00 0.00 0.00 94 1013.7
20260505011120 51 206 11.3 16.5 0.00 0.00 0.00 94 1013.8
20260505005619 51 215 13.0 16.5 0.00 0.00 0.00 95 1013.7
20260505005119 51 211 13.9 18.2 0.00 0.00 0.00 95 1013.8
20260505004619 51 207 13.9 18.2 0.00 0.00 0.00 95 1013.8
20260505004118 51 202 12.2 18.2 0.00 0.00 0.00 95 1013.8
20260505003619 51 202 11.3 18.2 0.00 0.00 0.00 95 1013.8
20260505003118 51 184 11.3 18.2 0.00 0.00 0.00 94 1013.8
20260505002623 51 200 11.3 17.4 0.00 0.00 0.00 94 1013.8
20260505002619 52 188 11.3 17.4 0.00 0.00 0.00 94 1013.8
20260505001618 52 173 12.2 17.4 0.00 0.00 0.00 94 1013.8
20260505001118 52 204 12.2 17.4 0.00 0.00 0.00 94 1013.8
20260505000618 52 197 12.2 15.6 0.00 0.00 0.00 93 1013.8
20260505000118 52 196 11.3 15.6 0.00 0.00 0.00 94 1013.8
20260504235619 53 180 11.3 15.6 0.00 0.00 0.00 94 1013.7
20260504235119 53 213 11.3 19.1 0.00 0.00 0.00 95 1013.7
20260504234618 52 203 12.2 19.1 0.00 0.00 0.00 94 1013.7
20260504234116 52 198 13.9 19.1 0.00 0.00 0.00 94 1013.7
20260504233616 52 201 13.9 19.1 0.00 0.00 0.00 94 1013.6
20260504233116 52 187 13.9 19.1 0.00 0.00 0.00 94 1013.6
20260504232616 52 196 13.0 19.1 0.00 0.00 0.00 94 1013.7
20260504232116 52 209 13.0 19.1 0.00 0.00 0.00 95 1013.7
20260504231616 51 188 12.2 19.1 0.00 0.00 0.00 95 1013.7
20260504231116 51 192 12.2 18.2 0.00 0.00 0.00 95 1013.8
20260504230616 51 195 12.2 18.2 0.00 0.00 0.00 94 1013.9
20260504230116 51 207 13.0 19.1 0.00 0.00 0.00 94 1013.9
20260504225616 51 196 15.6 22.6 0.00 0.00 0.00 94 1014.0
20260504225115 52 190 15.6 23.5 0.00 0.00 0.00 93 1013.9
20260504224616 52 184 14.8 24.3 0.00 0.00 0.00 92 1013.9
20260504224116 53 228 14.8 24.3 0.00 0.00 0.00 90 1014.0
20260504223616 52 194 15.6 23.5 0.00 0.00 0.00 90 1014.1
20260504223117 53 178 15.6 21.7 0.00 0.00 0.00 89 1014.1
20260504222614 53 200 15.6 25.2 0.00 0.00 0.00 91 1014.1
20260504222114 52 180 16.5 25.2 0.00 0.00 0.00 91 1014.1
20260504221616 53 198 14.8 25.2 0.00 0.00 0.00 89 1014.3
20260504221612 53 182 15.6 25.2 0.00 0.00 0.00 90 1014.0
20260504220611 53 198 14.8 25.2 0.00 0.00 0.00 91 1014.4
20260504220111 53 192 16.5 26.9 0.00 0.00 0.00 91 1014.5
20260504215612 52 192 18.2 32.2 0.00 0.00 0.00 90 1014.5
20260504215111 52 201 18.2 32.2 0.00 0.00 0.00 90 1014.4
20260504214612 52 161 18.2 26.9 0.00 0.00 0.00 90 1014.5
20260504214112 53 188 18.2 28.7 0.00 0.00 0.00 88 1014.5
20260504213615 54 165 18.2 26.9 0.00 0.00 0.00 87 1014.6
20260504213611 53 171 17.4 28.7 0.00 0.00 0.00 87 1014.5
20260504212611 53 177 18.2 27.8 0.00 0.00 0.00 88 1014.5
20260504212218 53 180 19.1 26.9 0.00 0.00 0.00 84 1014.5
20260504212111 53 171 18.2 27.8 0.00 0.00 0.00 87 1014.5
20260504211615 53 189 19.1 28.7 0.00 0.00 0.00 83 1014.6
20260504211611 53 182 19.1 28.7 0.00 0.00 0.00 85 1014.4
20260504210114 53 175 20.0 29.5 0.00 0.00 0.00 83 1014.5
20260504210108 53 172 19.1 26.9 0.00 0.00 0.00 83 1014.5
20260504205108 53 175 19.1 30.4 0.00 0.00 0.00 82 1014.5
20260504204608 53 178 18.2 30.4 0.00 0.00 0.00 82 1014.5
20260504204108 54 161 18.2 27.8 0.00 0.00 0.00 82 1014.4
20260504203716 53 198 18.2 27.8 0.00 0.00 0.00 82 1014.5
20260504203613 53 188 18.2 26.1 0.00 0.00 0.00 83 1014.4
20260504203608 53 182 19.1 27.8 0.00 0.00 0.00 82 1014.6
20260504202106 53 173 19.1 27.8 0.00 0.00 0.00 81 1014.4
20260504201606 54 177 18.2 26.9 0.00 0.00 0.00 79 1014.4
20260504201106 54 183 16.5 26.9 0.00 0.00 0.00 79 1014.4
20260504200612 55 161 14.8 24.3 0.00 0.00 0.00 78 1014.4
20260504200606 55 176 16.5 24.3 0.00 0.00 0.00 77 1014.5
20260504195605 55 184 13.9 20.9 0.00 0.00 0.00 79 1014.6
20260504195106 55 162 13.9 21.7 0.00 0.00 0.00 77 1014.6
20260504194603 55 190 13.0 21.7 0.00 0.00 0.00 76 1014.6
20260504194103 55 192 13.9 20.0 0.00 0.00 0.00 78 1014.6
20260504193602 54 181 13.9 20.9 0.00 0.00 0.00 80 1014.8
20260504193101 54 175 13.0 20.9 0.00 0.00 0.00 80 1014.8
20260504192602 53 203 13.0 20.0 0.00 0.00 0.00 79 1014.6
20260504192101 54 149 13.0 20.0 0.00 0.00 0.00 80 1014.8
20260504191602 54 165 12.2 20.0 0.00 0.00 0.00 81 1014.9
20260504191102 54 194 10.4 20.0 0.00 0.00 0.00 79 1014.8
20260504190601 55 188 8.7 16.5 0.00 0.00 0.00 82 1015.0
20260504185601 55 207 8.7 13.9 0.00 0.00 0.00 81 1014.9
20260504185102 54 176 7.8 13.9 0.00 0.00 0.00 84 1014.9
20260504184601 54 183 8.7 13.9 0.00 0.00 0.00 83 1014.9
20260504184102 54 191 9.6 13.9 0.00 0.00 0.00 84 1014.9
20260504183602 54 176 8.7 13.9 0.00 0.00 0.00 83 1014.9
20260504183101 54 188 8.7 13.9 0.00 0.00 0.00 82 1014.8
20260504182601 55 190 7.8 13.9 0.00 0.00 0.00 81 1014.9
20260504182102 55 169 7.0 13.0 0.00 0.00 0.00 83 1014.9
20260504181606 55 203 6.1 10.4 0.00 0.00 0.00 85 1014.9
20260504181602 55 195 6.1 12.2 0.00 0.00 0.00 83 1015.0
20260504180601 53 183 6.1 10.4 0.00 0.00 0.00 85 1015.0
20260504175602 53 207 7.8 11.3 0.00 0.00 0.00 86 1014.9
20260504175102 53 190 7.8 12.2 0.00 0.00 0.00 87 1014.9
20260504174602 53 190 7.8 13.0 0.00 0.00 0.00 87 1014.9
20260504174105 52 180 8.7 13.9 0.00 0.00 0.00 88 1014.8
20260504174101 52 175 7.8 13.0 0.00 0.00 0.00 86 1014.8
20260504173106 52 175 7.8 12.2 0.00 0.00 0.00 86 1014.8
20260504173101 52 202 8.7 13.9 0.00 0.00 0.00 87 1014.8
20260504172105 54 186 5.2 11.3 0.00 0.00 0.00 85 1014.8
20260504172101 53 173 7.0 11.3 0.00 0.00 0.00 85 1014.5
20260504171708 54 205 3.5 10.4 0.00 0.00 0.00 85 1014.6
20260504170601 53 180 4.3 9.6 0.00 0.00 0.00 84 1014.5
20260504151057 51 136 0.0 0.0 0.00 0.00 0.00 89 1014.1
20260504150558 51 136 0.0 0.0 0.00 0.00 0.00 89 1014.0